Weather History for New Braunfels, TX

Change the Weather History Date:

Wednesday, September 4, 2013

  Actual Average (KSAT) Record (KSAT)
Temperature  
Mean Temperature 86 °F 83 °F  
Max Temperature 100 °F 93 °F 109 °F (2000)
Min Temperature 73 °F 73 °F 56 °F (1974)
Degree Days  
Heating Degree Days 0 0  
Month to date heating degree days 0  
Since 1 July heating degree days 0  
Cooling Degree Days 22 18  
Month to date cooling degree days 73  
Year to date cooling degree days 2464  
Growing Degree Days 36 (Base 50)    
Moisture  
Dew Point 70 °F    
Average Humidity 69    
Maximum Humidity 91    
Minimum Humidity 34    
Precipitation  
Precipitation 0.06 in 0.11 in 4.69 in (1942)
Month to date precipitation 0.42  
Year to date precipitation 21.36  
Snow  
Snow 0.00 in - - ()
Month to date snowfall  
Since 1 July snowfall  
Since 1 September snowfall  
Snow Depth -    
Sea Level Pressure  
Sea Level Pressure 29.97 in    
Wind  
Wind Speed 8 mph (WSW)    
Max Wind Speed 37 mph    
Max Gust Speed 55 mph    
Visibility 8 miles    
Events Rain , Thunderstorm    
T = Trace of Precipitation, MM = Missing Value Source: NWS Daily Summary

Daily Weather History Graph

Daily Weather History Graph

Search for Another Location

Airport:

Trip Planner

Search our weather history database for the weather conditions in past years. The results will help you decide how hot, cold, wet, or windy it might be!

Date:

Astronomy

Sep. 04, 2013 Rise Set
Actual Time 7:11 AM CDT 7:50 PM CDT
Civil Twilight 6:47 AM CDT 8:14 PM CDT
Nautical Twilight 6:18 AM CDT 8:42 PM CDT
Astronomical Twilight 5:49 AM CDT 9:11 PM CDT
Moon 6:24 AM CDT (9/4) 7:13 PM CDT (9/4)
Length of Visible Light 13h 27m
Length of Day
12h 39m
Waning Crescent, 1% of the Moon is Illuminated
Sep 4
Waning Crescent
Sep 5
New
Sep 12
First Quarter
Sep 19
Full
Sep 26
Last Quarter

Hourly Weather History & Observations

Time (CDT) Temp. Heat Index Dew Point Humidity Pressure Visibility Wind Dir Wind Speed Gust Speed Precip Events Conditions
12:51 AM 82.0 °F 85.9 °F 70.0 °F 67% 29.92 in 10.0 mi SSW 5.8 mph - N/A   Clear
1:51 AM 79.0 °F - 70.0 °F 74% 29.92 in 10.0 mi SSW 5.8 mph - N/A   Clear
2:51 AM 79.0 °F - 70.0 °F 74% 29.93 in 10.0 mi SSW 5.8 mph - N/A   Clear
3:51 AM 77.0 °F - 70.0 °F 79% 29.93 in 10.0 mi SW 5.8 mph - N/A   Scattered Clouds
4:51 AM 77.0 °F - 69.1 °F 76% 29.94 in 10.0 mi SW 6.9 mph - N/A   Scattered Clouds
5:51 AM 77.0 °F - 70.0 °F 79% 29.97 in 10.0 mi NE 6.9 mph - N/A   Mostly Cloudy
6:51 AM 75.9 °F - 72.0 °F 87% 29.99 in 10.0 mi NNE 4.6 mph - 0.00 in   Mostly Cloudy
7:51 AM 77.0 °F - 72.0 °F 84% 29.99 in 10.0 mi WNW 5.8 mph - 0.00 in   Mostly Cloudy
8:51 AM 80.1 °F 83.6 °F 71.1 °F 74% 29.99 in 10.0 mi West 6.9 mph - N/A   Partly Cloudy
9:51 AM 84.9 °F 89.4 °F 70.0 °F 61% 30.00 in 10.0 mi WNW 4.6 mph - N/A   Partly Cloudy
10:51 AM 89.1 °F 93.7 °F 69.1 °F 52% 30.01 in 10.0 mi North 3.5 mph - N/A   Scattered Clouds
11:51 AM 93.0 °F 97.9 °F 69.1 °F 45% 30.00 in 10.0 mi North 3.5 mph - N/A   Clear
12:51 PM 96.1 °F 98.8 °F 64.9 °F 36% 29.99 in 10.0 mi Variable 3.5 mph - N/A   Partly Cloudy
1:51 PM 98.1 °F 101.2 °F 64.9 °F 34% 29.96 in 10.0 mi East 4.6 mph - N/A   Scattered Clouds
2:51 PM 98.1 °F 101.2 °F 64.9 °F 34% 29.94 in 10.0 mi Variable 3.5 mph - N/A   Mostly Cloudy
3:29 PM 96.8 °F 99.0 °F 64.4 °F 34% 29.98 in 2.5 mi SE 36.8 mph 55.2 mph 0.04 in Rain , Thunderstorm Thunderstorms and Rain
3:37 PM 84.2 °F 85.6 °F 64.4 °F 51% 29.96 in 3.0 mi North - - 0.06 in Rain , Thunderstorm Thunderstorms and Rain
3:51 PM - - - N/A% 29.96 in 3.0 mi North - - 0.06 in Rain , Thunderstorm Thunderstorms and Rain
4:51 PM - - - N/A% 29.93 in - North - - N/A Rain , Thunderstorm Thunderstorms and Rain
5:22 PM 86.0 °F 91.8 °F 71.6 °F 62% 29.95 in 1.5 mi South 16.1 mph 35.7 mph N/A Rain , Thunderstorm Thunderstorms and Rain
5:24 PM 82.4 °F 87.2 °F 71.6 °F 70% 29.95 in 0.8 mi Variable 6.9 mph 35.7 mph N/A Rain , Thunderstorm Thunderstorms and Rain
5:33 PM 80.6 °F 85.4 °F 73.4 °F 79% 29.95 in 1.5 mi WSW 4.6 mph - N/A Rain , Thunderstorm Thunderstorms and Rain
5:35 PM 80.6 °F 85.4 °F 73.4 °F 79% 29.95 in 3.0 mi SW 4.6 mph - N/A Rain , Thunderstorm Thunderstorms and Rain
5:51 PM 81.0 °F 85.2 °F 72.0 °F 74% 29.91 in 10.0 mi WSW 8.1 mph - N/A Rain , Thunderstorm Thunderstorms and Rain
6:05 PM 82.4 °F 88.2 °F 73.4 °F 74% 29.94 in 10.0 mi West 5.8 mph - 0.00 in   Partly Cloudy
6:51 PM 84.9 °F 92.1 °F 73.9 °F 69% 29.94 in 10.0 mi SSW 4.6 mph - 0.00 in   Clear
7:51 PM 81.0 °F 84.4 °F 70.0 °F 69% 29.94 in 10.0 mi SW 5.8 mph - N/A   Scattered Clouds
8:51 PM 80.1 °F 83.6 °F 71.1 °F 74% 29.96 in 10.0 mi South 4.6 mph - N/A Thunderstorm Partly Cloudy
9:06 PM 80.6 °F 84.6 °F 71.6 °F 74% 30.03 in 10.0 mi ENE 10.4 mph - N/A   Mostly Cloudy
9:13 PM 78.8 °F - 71.6 °F 78% 30.04 in 10.0 mi NE 29.9 mph 35.7 mph N/A Thunderstorm Mostly Cloudy
9:25 PM 75.2 °F - 71.6 °F 89% 30.05 in 10.0 mi NE 24.2 mph 33.4 mph N/A Thunderstorm Overcast
9:51 PM 75.0 °F - 68.0 °F 79% 30.04 in 10.0 mi NE 21.9 mph 32.2 mph N/A Thunderstorm Scattered Clouds
10:14 PM 75.2 °F - 69.8 °F 83% 30.05 in 10.0 mi NNE 16.1 mph 20.7 mph N/A   Scattered Clouds
10:51 PM 77.0 °F - 69.1 °F 76% 30.01 in 10.0 mi Calm Calm - N/A   Clear
11:51 PM 73.9 °F - 71.1 °F 91% 30.00 in 10.0 mi West 3.5 mph - N/A   Clear